アラン彗星

50P/Arend (2016)

English version
Home page
Updated on November 15, 2021

---------------------------------------------------------------------

・ プロフィール

・ 写真集

・ 軌道要素

Epoch 2016 Feb. 22.0 TT = JDT 2457440.5
T 2016 Feb. 8.18921 TT                                  MPCW
q   1.9187970            (2000.0)            P               Q
n   0.11940470     Peri.   49.22210     +0.71097559     -0.70267597
a   4.0843389      Node   355.17603     +0.50488244     +0.53735246
e   0.5302062      Incl.   19.13919     +0.48949713     +0.46636768
P   8.25
From 1239 observations 1991 Aug. 1-2015 Sept. 20, mean residual 0".6.
     Nongravitational parameters A1 = +0.24, A2 = -0.0107.

・ 星図

・ 光度変化

        m1 =  8.6 + 5 logΔ + 22.0 log r  [ ,0]  (              〜2016年 2月 8日)
        m1 = 12.0 + 5 logΔ + 10.0 log r  [0, ]  (2016年 2月 8日〜              )

---------------------------------------------------------------------

軌道要素はM.P.E.C. 2015-S97に掲載されたものです。
星図はステラナビゲータ Ver.8 (アストロアーツ) で作成したものです。
光度グラフはComet for Windowsで作成したものです。

---------------------------------------------------------------------

Copyright(C) Seiichi Yoshida (comet@aerith.net). All rights reserved.